Cloud_Cover
2 1 5 0 0 1 4 5 4 2 10 91 32 0 0 0 0 0 3 5 1 9 97 97 23 100 100 100 5 11 48 100 36 100 100 100 100 95 3 0 95 36 1
0 0 6 5 2 1 0 4 1 8 2 8 0 0 0 0 0 0 3 98 14 3 98 90 100 100 98 69 7 28 51 100 100 100 100 100 7 0 0 0 1 20 0
1 0 4 1 2 2 0 2 2 30 3 3 0 0 0 0 0 3 32 55 82 0 6 24 100 100 100 100 100 100 100 100 93 4 54 80 29 1 0 0 0 70 0
100 59 97 17 0 1 3 5 5 25 2 0 0 0 0 0 29 98 6 5 5 1 5 8 64 99 100 100 73 70 68 5 5 98 97 100 85 17 14 0 7 70 100
50 47 100 20 1 3 0 1 56 7 3 5 0 0 0 0 32 2 3 5 0 0 0 2 5 28 69 29 12 28 12 0 20 82 38 68 100 87 99 87 53 5 32
83 92 100 77 60 27 84 36 4 12 3 2 0 0 0 0 1 13 1 11 0 0 0 0 0 5 5 0 6 24 0 0 100 83 17 1 60 100 100 68 52 2 0
100 100 79 84 8 57 5 5 4 13 30 5 0 0 0 0 12 41 0 42 2 0 0 0 7 1 0 0 4 0 0 85 81 100 100 100 94 100 100 100 99 31 97
100 100 100 72 95 90 5 16 7 29 100 87 5 61 0 2 0 0 1 66 6 0 0 2 84 41 85 2 12 0 0 20 50 95 94 75 38 53 88 100 100 84 36
100 100 100 74 91 43 88 24 54 33 90 52 5 2 5 5 5 0 5 14 49 2 0 3 10 100 100 13 0 0 0 70 90 96 94 100 28 24 100 93 99 100 74
100 100 100 93 93 57 22 5 62 14 62 99 30 84 100 95 5 5 5 41 100 5 40 100 42 100 100 58 0 0 4 100 82 92 100 89 100 32 95 100 98 100 97
100 100 100 71 100 98 42 21 27 91 100 100 100 81 77 100 62 7 53 100 94 5 67 89 10 100 100 100 0 94 100 70 95 75 88 46 100 100 96 100 96 54 81
95 100 100 100 100 50 44 78 65 71 100 100 100 93 100 100 100 43 55 100 100 36 100 100 100 100 100 100 72 31 52 59 87 97 82 58 100 42 15 40 100 63 100
100 100 100 99 100 37 56 94 86 98 100 100 100 94 100 100 100 100 100 100 100 63 86 100 100 56 41 98 100 100 100 100 92 91 96 79 5 27 7 1 20 21 20
93 100 100 96 100 96 100 99 92 100 100 100 100 100 100 100 100 100 83 82 100 75 55 34 80 8 12 5 60 86 100 100 100 100 97 98 66 11 25 7 11 18 0
100 76 100 100 100 100 98 93 100 100 100 100 100 100 100 100 100 100 100 100 100 100 32 52 66 28 47 28 4 65 61 22 28 96 97 100 100 99 49 96 80 35 65
100 100 100 100 100 100 100 100 93 100 100 100 100 100 100 100 100 86 82 92 100 100 37 65 92 86 35 70 6 98 56 54 32 36 69 100 100 98 100 78 5 29 67
96 100 100 93 100 100 100 100 75 100 100 100 100 100 100 95 100 64 96 100 100 100 86 55 82 46 16 48 23 100 69 28 7 24 77 100 100 100 100 100 98 66 91
93 95 100 100 100 100 100 100 60 57 100 100 100 100 100 91 64 20 63 100 100 100 100 6 100 10 65 58 94 100 83 6 5 18 5 100 98 81 100 100 100 37 50
100 100 99 100 100 100 100 100 83 72 100 100 100 100 100 91 64 69 64 100 100 100 100 61 99 100 64 22 96 85 47 11 18 5 14 91 40 20 100 100 100 100 100
98 100 100 100 100 100 100 100 99 99 100 100 100 100 100 67 80 36 100 100 100 100 100 98 97 100 96 74 46 66 5 5 29 68 11 22 5 23 100 100 100 44 100
88 100 100 100 100 100 100 100 100 100 100 100 100 100 100 52 31 81 87 100 100 100 100 100 44 100 99 93 100 96 28 54 44 36 14 5 6 89 81 100 100 51 69
66 100 100 100 100 100 100 100 100 100 100 100 100 100 100 83 32 36 100 100 100 100 100 100 100 100 100 98 100 99 96 60 12 20 58 5 46 100 100 100 100 96 10
77 100 100 98 100 100 100 100 100 100 100 100 100 100 100 94 22 44 99 100 100 100 100 100 100 100 100 100 100 100 100 61 27 22 47 87 100 96 92 100 100 100 43
82 83 100 100 100 100 100 100 100 100 100 100 100 100 97 100 89 100 94 100 100 100 100 100 100 100 100 100 100 100 100 100 68 98 87 62 100 100 100 100 100 100 28
100 98 100 100 100 100 100 100 100 100 100 100 100 100 94 70 39 70 39 91 100 100 100 100 100 100 100 100 100 78 100 100 100 80 100 100 100 100 100 100 100 90 33
100 94 100 100 100 100 100 100 100 100 100 100 100 100 100 80 92 60 68 80 100 100 100 100 100 100 100 100 100 97 99 100 100 98 100 100 100 100 100 100 100 32 22